User: anonymous   Login
Location: Fort Wayne
(41.1310°N, 85.1290°W)
Time: 11:09:54
(UTC-04:00)
Language:

Cosmos 1953 - Orbit

View from above orbital plane
View from above orbital plane
View from above satellite
View from above satellite

Ground track
Ground track

The orbit data is extracted from the following two-line orbital elements,

1 19210U 88050A   14302.83357641  .00004866  00000-0  36397-3 0  5532
2 19210 082.5187 244.0880 0012373 300.1175 059.8823 15.02507690433308
Epoch (UTC): 29 October 2014 20:00:21
Eccentricity: 0.0012373
inclination: 82.5187°
perigee height: 550 km
apogee height: 568 km
right ascension of ascending node: 244.0880°
argument of perigee: 300.1175°
revolutions per day: 15.02507690
mean anomaly at epoch: 59.8823°
orbit number at epoch: 43330

The dashed part of the orbit path shows where the satellite is in the earth's shadow,  

DLR